Regional Weather Roundup
Issued by NWS Sterling, VA

Home | Current Version | Previous Version | Text Only | Print | Product List | Glossary On
Versions: 1 2 3 4 5 6 7 8 9 10 11 12 13 14 15 16 17 18 19 20 21 22 23 24 25 26 27 28 29 30 31 32 33 34 35 36 37 38 39 40 41 42 43 44 45 46 47 48 49 50
000
ASUS41 KLWX 010910
RWRLWX

REGIONAL WEATHER ROUNDUP
NATIONAL WEATHER SERVICE BALTIMORE MD/WASHINGTON DC
500 AM EDT TUE SEP 01 2015

Note: "FAIR" indicates few or no clouds below 12,000 feet
with no significant weather and/or obstructions to visibility.
 TC=TEMPERATURE CELSIUS

 * =Non NWS site. Station does not report precipitation (e.g. rain,
    snow, etc.), thunder, or fog.

DCZ001-MDZ009-015-VAZ040>042-051-053>054-011000-
WASHINGTON METRO

CITY           SKY/WX    TMP DP  RH WIND       PRES   REMARKS
WASHINGTON NAT PTCLDY    72  69  90 SW3       30.04F
DULLES         CLEAR     67  66  97 CALM      30.04F
ANDREWS AFB    CLEAR     70  69  96 W3        30.03F
FT BELVOIR     CLEAR     68  66  94 CALM      30.03F FOG
QUANTICO       CLOUDY    72  68  87 W5        30.04F
COLLEGE PARK*  CLEAR     70  70 100 CALM      30.03F
LEESBURG*      CLEAR     68  68 100 CALM      30.05F
MANASSAS*      MOCLDY    66  64  94 CALM      30.04F
GAITHERSBURG*  CLEAR     66  64  94 CALM      30.09S

$$

MDZ006>007-011-014-011000-
BALTIMORE METRO

CITY           SKY/WX    TMP DP  RH WIND       PRES   REMARKS
BWI AIRPORT    CLEAR     70  68  93 W3        30.02F
MD SCIENCE CTR   N/A     74  69  85 MISG      30.03F
ANNAPOLIS      CLEAR     72  70  93 CALM      30.02F
FORT MEADE*    CLEAR     64  63  94 CALM      30.05F

$$

MDZ012-015-019>023-011000-
MARYLAND EASTERN SHORE

CITY           SKY/WX    TMP DP  RH WIND       PRES   REMARKS
OCEAN CITY     CLEAR     70  68  93 W3        30.04S
SALISBURY      CLEAR     66  64  93 CALM      30.03F
BAY BRIDGE AP*   N/A     72  70  94 W5        30.03S
CAMBRIDGE*     CLEAR     70  66  88 CALM      30.03F

$$

MDZ017>025-011000-
SOUTHERN MARYLAND

CITY           SKY/WX    TMP DP  RH WIND       PRES   REMARKS
PATUXENT RIVER CLEAR     67  66  97 CALM      30.03F
ST INIGOES     CLEAR     71  69  93 W3        30.03F
LEONARDTOWN*   NOT AVBL

$$

MDZ003>005-011000-
NORTH CENTRAL MARYLAND

CITY           SKY/WX    TMP DP  RH WIND       PRES   REMARKS
FREDERICK*     CLEAR     68  68 100 CALM      30.07S
HAGERSTOWN APT CLEAR     70  66  87 E3        30.07R
WESTMINSTER*   CLEAR     70  64  83 CALM      30.06S

$$

MDZ501>502-011000-
WESTERN MARYLAND

CITY           SKY/WX    TMP DP  RH WIND       PRES   REMARKS
OAKLAND*       CLEAR     63  61  94 W3        30.20S
CUMBERLAND*    CLEAR     64  64 100 CALM      30.13R

$$

VAZ025>031-011000-
SHENANDOAH VALLEY

CITY           SKY/WX    TMP DP  RH WIND       PRES   REMARKS
WINCHESTER*    CLEAR     64  63  94 CALM      30.07S
FRONT ROYAL*   FAIR      66  63  88 S3        30.07S
LURAY*         FAIR      63  63 100 CALM      30.09F
NEW MARKET*    FAIR      62  61  96 CALM      30.08S
STAUNTON*      CLEAR     63  61  92 CALM      30.13R
WAYNESBORO*    FAIR      64  61  91 CALM      30.12S

$$

WVZ021-048>050-054>055-011000-
EASTERN WEST VIRGINIA PANHANDLE

CITY           SKY/WX    TMP DP  RH WIND       PRES   REMARKS
MARTINSBURG    CLEAR     64  63  96 CALM      30.07S FOG
PETERSBURG*    FOG       63  63  99 CALM      30.12S VSB 1

$$

VAZ036>039-050-011000-
CENTRAL FOOTHILLS

CITY           SKY/WX    TMP DP  RH WIND       PRES   REMARKS
CHARLOTTESVILL CLEAR     65  63  93 CALM      30.06S
CULPEPER*      FOG       65  65 100 CALM      30.05F VSB 3/4
ORANGE*        FOG       70  68  94 CALM      30.06F VSB 1/4
GORDONSVILLE*  FOG       68  68 100 CALM      30.05S VSB 1/2
WARRENTON*     MOCLDY    68  68 100 CALM      30.04F FOG

$$

VAZ055>057-011000-
NORTH AND CENTRAL PIEDMONT

CITY           SKY/WX    TMP DP  RH WIND       PRES   REMARKS
FREDERICKSBRG* PTCLDY    71  71 100 CALM      30.03F
STAFFORD*      CLOUDY    69  67  95 CALM      30.08F

$$

NCZ024-NYZ072-PAZ021-071-VAZ022-071-011000-
OTHER REGIONAL OBSERVATIONS

CITY           SKY/WX    TMP DP  RH WIND       PRES   REMARKS
NEW YORK CITY  CLEAR     78  65  63 CALM      30.03F
PHILADELPHIA   CLEAR     74  69  85 SW5       30.03S
PITTSBURGH     CLEAR     68  64  87 CALM      30.11R
ROANOKE        CLEAR     66  64  93 CALM      30.13S
RICHMOND       CLOUDY    73  69  87 CALM      30.04F
RALEIGH        FOG       70  68  93 CALM      30.07F VSB 1/16

$$

ANZ530>537-011000-
MARINE OBSERVATIONS

STATION/POSITION TIME  TEMP    WIND        PRES
                       AIR SEA DIR/SP/G
                 (UTC) (F)     (DEG/KT/KT) (MB)
THOMAS PT LIGHT  0900   73 78  270/  6/  7 1017.2
BALT KEY BRIDGE  0800   74     230/  5/  5 1016.9
COVE POINT       0800   72     280/ 11/ 16 1017.7
LEWISETTA        0800   71 79  300/  4/  5 1017.0
SOLOMONS ISLAND  0800      80                N/A
PINEY POINT      0805          260/  3/  5   N/A

$$




USA.gov is the U.S. government's official web portal to all federal, state and local government web resources and services.